Observations
| Time | Sensor | AQI | SAQ | Temp °C | Hum % | Pres Pa | CO μg/m³ | H₂S μg/m³ | NO μg/m³ | NO₂ μg/m³ | O₃ μg/m³ | SO₂ μg/m³ | CO₂e PPM | VOC PPM | PM1 μg/m³ | PM2.5 μg/m³ | PM4 μg/m³ | PM10 μg/m³ | TPS µm |
|---|---|---|---|---|---|---|---|---|---|---|---|---|---|---|---|---|---|---|---|
| Tuesday 11 August 2026 | |||||||||||||||||||
| 12:57 | Trim Market St | 2 | 39.8 | 19 | 66,975 | 0 | 3.15 | 0.07 | 16.52 | 114.54 | 3.76 | 0 | 3.23 | 3.55 | |||||
| 12:57 | Trim Patrick St | 1 | 31.5 | 28 | 69,345 | 0 | 2.73 | 1.11 | 14.54 | 75.36 | 16.52 | 2 | 7.78 | 8.56 | |||||
| 12:56 | Trim Market St | 2 | 39.7 | 19 | 66,957 | 0 | 0 | 0.09 | 14.86 | 97.02 | 4.25 | 0 | 3.78 | 4.16 | |||||
| 12:56 | Trim Patrick St | 1 | 31.4 | 28 | 69,361 | 0 | 2.37 | 1.1 | 17.42 | 104.46 | 16.04 | 2 | 8.58 | 9.44 | |||||
| 12:55 | Trim Market St | 2 | 39.6 | 19 | 66,967 | 0 | 10.02 | 0.1 | 25.36 | 95.73 | 2.82 | 0 | 3.22 | 3.55 | |||||
| 12:55 | Trim Patrick St | 1 | 31.3 | 29 | 69,349 | 0 | 10.16 | 1.11 | 15.96 | 79.57 | 17.35 | 2.86 | 10.18 | 11.2 | |||||
| 12:54 | Trim Market St | 2 | 39.5 | 19 | 66,953 | 0 | 2.7 | 0.14 | 33.64 | 68.71 | 1.99 | 1.43 | 4.91 | 5.4 | |||||
| 12:54 | Trim Patrick St | 1 | 31.2 | 29 | 69,336 | 0 | 9.37 | 1.14 | 20.55 | 106.12 | 17.21 | 3.71 | 9.38 | 10.32 | |||||
| 12:53 | Trim Market St | 2 | 39.3 | 19 | 66,965 | 0 | 0 | 0.17 | 15.46 | 94.55 | 3.54 | 0 | 3.23 | 3.55 | |||||
| 12:53 | Trim Patrick St | 1 | 31.1 | 28 | 69,318 | 0 | 14.58 | 1.06 | 14.34 | 97.07 | 17.52 | 2 | 7.79 | 8.57 | |||||
| 12:52 | Trim Market St | 2 | 39.2 | 19 | 66,957 | 0 | 1.25 | 0.2 | 15.2 | 107.86 | 4.13 | 0 | 3.22 | 3.54 | |||||
| 12:52 | Trim Patrick St | 1 | 31.1 | 28 | 69,322 | 0 | 19.42 | 1.05 | 51.12 | 86.49 | 17.38 | 2 | 7.78 | 8.55 | |||||
| 12:51 | Trim Market St | 2 | 39.1 | 19 | 66,973 | 0 | 0 | 0.23 | 15.04 | 77.44 | 4.76 | 0.71 | 3.78 | 4.16 | |||||
| 12:51 | Trim Patrick St | 1 | 31 | 28 | 69,324 | 0 | 12.82 | 0.93 | 14.25 | 95.22 | 16.81 | 2 | 7.79 | 8.57 | |||||
| 12:50 | Trim Market St | 2 | 39 | 19 | 66,937 | 0 | 2.66 | 0.24 | 15.42 | 105.87 | 4.35 | 0 | 3.22 | 3.54 | |||||
| 12:50 | Trim Patrick St | 1 | 30.9 | 28 | 69,336 | 0 | 20.05 | 1.03 | 23.58 | 120.7 | 18.43 | 2 | 7.78 | 8.56 | |||||
| 12:49 | Trim Market St | 2 | 38.9 | 19 | 66,926 | 0 | 6.41 | 0.24 | 15.22 | 130.87 | 4.78 | 0 | 3.77 | 4.15 | |||||
| 12:49 | Trim Patrick St | 1 | 30.9 | 28 | 69,322 | 0 | 10.65 | 0.95 | 17.99 | 110.55 | 16.7 | 2 | 8.58 | 9.44 | |||||
| 12:48 | Trim Market St | 2 | 38.8 | 19 | 66,910 | 0 | 0 | 0.27 | 15.37 | 99.93 | 3.79 | 0.71 | 3.79 | 4.16 | |||||
| 12:48 | Trim Patrick St | 1 | 30.8 | 28 | 69,306 | 0 | 13.45 | 0.97 | 15.69 | 128.13 | 17.47 | 2.86 | 8.58 | 9.44 | |||||